Lapse_Rate
7.0 6.9 7.2 7.0 6.7 6.7 6.6 6.7 6.8 6.9 6.5 6.0 6.5 6.6 7.1 7.2 7.7 7.9 7.9 7.6 7.3 7.3 7.3 7.3 7.3 7.4 7.1 7.2 7.0 7.0 6.8 6.7 6.7 6.5 6.5 6.3 6.2 6.2 6.2 6.3 6.3 6.3 6.3 6.2
7.0 6.9 6.9 7.1 6.7 6.6 6.4 6.4 6.8 6.8 6.4 6.2 6.7 6.9 7.1 7.2 7.2 7.7 7.9 8.1 7.7 7.4 7.3 7.6 7.6 7.6 7.5 7.2 7.0 6.9 6.7 6.7 6.7 6.6 6.5 6.4 6.2 6.1 6.1 6.2 6.2 6.2 6.1 6.1
6.6 6.7 7.0 6.8 6.6 6.3 6.6 6.3 6.4 6.4 6.4 6.3 6.5 6.7 7.1 6.9 6.8 7.3 7.8 8.1 8.2 8.1 7.9 7.8 7.8 7.5 7.6 7.3 6.8 6.9 6.6 6.6 6.6 6.7 6.6 6.4 6.3 6.3 6.2 6.1 6.0 6.0 5.9 5.9
6.9 7.2 7.1 7.1 7.0 6.5 6.9 6.5 6.0 6.0 6.2 7.0 6.9 6.8 7.3 7.2 7.0 7.2 7.5 7.9 8.3 8.4 8.2 8.1 7.8 7.5 7.5 7.3 6.8 6.6 6.6 6.6 6.6 6.7 6.6 6.5 6.3 6.2 6.0 6.0 5.8 5.8 5.7 5.7
7.1 7.1 7.0 7.0 6.7 6.5 6.8 6.5 6.1 6.0 6.2 6.1 7.0 6.7 7.1 7.3 6.9 6.8 7.0 7.6 7.7 8.0 8.2 8.3 8.3 7.9 7.5 7.2 6.9 6.7 6.5 6.9 6.7 6.5 6.6 6.6 6.5 6.5 6.3 6.1 5.9 5.7 5.7 5.7
7.2 7.1 7.4 7.2 7.1 6.9 6.5 6.3 6.3 6.3 6.3 6.7 6.8 7.1 7.5 8.0 7.6 7.2 7.3 7.3 7.4 7.6 7.7 8.0 8.1 7.5 7.1 7.4 6.6 7.1 7.7 7.0 6.7 6.6 6.5 6.6 6.5 6.5 6.4 6.2 6.1 5.8 5.6 5.6
7.0 7.4 7.5 7.4 7.3 6.8 6.8 6.5 7.3 7.5 7.5 7.8 6.5 6.6 7.5 7.5 7.2 7.0 7.2 7.3 7.4 7.6 7.7 7.9 8.2 8.3 7.9 7.6 7.1 7.3 7.4 7.4 7.2 6.6 6.6 6.5 6.5 6.5 6.4 6.2 6.1 5.9 5.7 5.7
7.5 7.8 7.3 7.3 7.2 7.2 7.0 6.9 7.4 7.2 8.0 8.0 7.3 7.1 7.6 7.5 7.3 7.0 7.0 7.3 7.6 7.9 7.9 8.0 8.1 8.1 8.2 8.1 7.2 7.0 7.2 7.1 7.1 6.8 6.7 6.4 6.5 6.4 6.4 6.3 6.1 6.1 5.9 5.8
7.5 7.2 7.0 7.0 7.1 7.0 6.8 7.0 7.0 7.0 7.0 7.0 7.4 7.1 6.7 6.9 7.3 7.0 7.1 7.1 7.4 7.6 7.8 7.8 7.8 8.1 8.0 8.2 7.3 7.2 6.5 6.6 6.6 7.0 6.6 6.5 6.5 6.5 6.3 6.2 6.1 6.1 6.0 5.9
7.2 7.2 7.0 6.9 6.9 6.9 6.9 6.9 7.1 7.0 7.1 7.4 8.0 7.7 7.5 6.7 7.5 7.3 7.2 7.2 7.3 7.4 7.6 7.7 7.6 7.7 7.8 7.8 7.6 7.0 6.4 6.5 6.4 6.8 6.4 6.6 6.6 6.6 6.4 6.2 6.1 6.1 6.0 5.9
6.7 6.6 7.3 6.7 6.8 7.3 6.9 6.8 6.7 7.0 7.2 7.4 7.2 7.4 6.8 6.6 7.3 7.1 7.1 7.2 7.2 7.3 7.4 7.5 7.4 7.7 7.8 7.9 7.9 7.2 6.4 5.8 6.4 6.8 6.5 6.5 6.4 6.6 6.5 6.4 6.2 6.1 6.0 6.0
6.1 6.3 6.6 6.9 7.1 6.9 7.0 7.3 7.4 7.2 7.3 7.3 6.9 6.1 6.4 6.6 6.7 7.2 7.0 7.0 7.4 7.2 7.5 7.6 7.6 7.4 7.7 8.2 7.7 7.5 6.9 6.6 6.7 6.8 6.5 6.6 6.4 6.5 6.5 6.4 6.2 6.1 6.1 5.9
6.0 6.3 6.5 6.8 6.9 6.7 6.6 6.9 7.1 7.2 7.1 6.7 7.3 6.6 6.7 6.7 6.5 7.2 7.0 7.2 7.5 7.5 7.5 7.5 7.4 7.4 7.5 7.7 7.6 7.2 7.3 7.2 6.9 6.8 6.7 6.7 6.7 6.6 6.6 6.5 6.3 6.2 6.1 6.0
6.1 5.9 6.1 6.8 7.3 7.5 6.8 6.7 6.5 6.7 6.8 6.5 6.7 6.9 6.7 6.9 6.9 7.2 7.4 7.2 7.4 7.3 7.5 7.3 7.3 7.1 7.1 7.3 7.3 6.8 7.0 6.9 6.8 6.8 6.8 6.8 6.8 6.9 6.6 6.5 6.3 6.4 6.3 6.2
5.2 5.2 5.9 5.8 5.8 6.0 6.5 6.1 6.3 6.5 6.5 7.0 6.5 6.7 6.5 6.8 7.1 7.2 7.4 7.2 7.2 7.3 7.6 7.5 7.5 7.3 7.1 7.2 7.2 6.7 6.8 6.9 6.8 6.8 6.9 7.0 6.8 6.6 6.6 6.5 6.7 6.7 6.4 6.0
4.9 4.8 5.7 5.2 5.4 5.9 6.4 5.9 5.8 6.0 6.0 6.4 6.6 6.5 6.9 7.1 7.2 7.1 7.4 7.2 7.2 7.2 7.5 7.7 7.6 7.5 7.5 7.2 7.2 6.8 6.5 7.1 7.1 7.2 7.1 6.7 6.5 6.6 6.6 6.5 6.6 6.6 6.4 6.1
3.9 4.3 5.3 4.9 5.7 6.1 5.8 6.0 6.0 6.2 6.3 6.6 6.4 6.3 6.7 6.9 7.1 7.3 7.5 7.2 7.2 7.2 7.4 7.6 7.8 7.6 7.5 7.2 7.3 7.3 7.1 7.2 6.9 6.7 6.6 6.8 6.6 6.4 6.5 6.7 6.3 6.3 6.4 6.2
3.7 4.1 4.6 4.5 5.1 5.1 5.3 5.9 6.1 6.3 6.6 6.5 6.7 6.7 6.8 7.0 7.1 7.0 7.4 7.2 7.1 7.1 7.2 7.8 7.8 7.6 7.3 7.3 7.0 6.6 6.8 6.4 6.3 6.8 6.6 6.6 6.8 6.8 6.8 6.7 6.8 6.7 6.5 6.5
4.3 4.3 4.7 4.8 5.3 5.5 5.5 5.5 5.8 6.2 6.5 6.5 6.7 6.4 6.6 6.6 7.3 7.1 7.3 7.6 7.7 7.6 7.3 7.4 7.6 7.3 7.1 6.4 6.5 6.1 6.0 6.0 6.5 6.7 6.9 7.0 6.9 7.0 7.0 7.0 7.0 6.8 6.8 6.7
4.9 4.5 4.7 4.8 4.9 5.6 5.8 6.0 5.9 6.2 5.4 5.7 6.4 6.6 6.8 6.9 7.4 7.1 7.8 6.8 7.4 7.2 7.2 7.2 7.3 7.1 7.0 6.4 6.2 5.8 6.0 6.8 7.2 7.5 7.4 7.4 7.3 7.1 6.9 6.8 6.6 6.7 6.7 6.7
5.8 5.2 4.9 4.8 5.1 4.7 4.6 5.0 5.1 6.2 5.4 6.6 6.9 6.7 6.7 6.9 7.4 7.7 7.6 7.5 7.6 7.2 7.3 7.3 7.0 6.9 6.2 5.7 5.5 5.8 6.2 7.4 7.6 7.5 7.5 7.3 7.1 6.8 6.8 6.7 6.7 6.6 6.5 6.3
5.4 5.8 5.5 5.6 5.5 5.0 4.7 5.0 5.1 5.5 5.8 6.3 6.9 7.1 7.1 7.5 7.8 7.5 7.5 7.7 7.4 7.2 7.5 7.0 6.6 6.3 5.9 5.5 5.6 6.4 7.2 7.4 7.5 7.4 7.1 7.0 6.9 6.8 6.7 6.6 6.5 6.4 6.3 6.3
5.1 5.1 5.3 5.3 5.7 5.6 5.5 5.3 5.4 5.4 5.5 5.5 5.8 6.4 7.2 7.3 7.2 7.1 7.0 7.1 7.4 7.1 6.9 6.2 5.7 6.2 6.2 5.3 5.3 7.1 7.7 7.6 7.6 7.2 7.0 6.8 6.6 6.5 6.5 6.2 6.3 6.3 6.2 6.4
5.0 5.1 5.0 5.2 5.0 4.9 4.8 5.6 5.5 5.6 5.5 5.5 6.1 6.5 6.3 6.6 6.9 6.8 6.9 7.3 7.1 6.4 6.3 5.8 5.3 6.0 5.5 6.1 6.8 7.3 7.4 7.2 7.0 6.9 6.8 6.7 6.5 6.3 6.2 6.4 6.5 6.3 6.3 6.5
4.5 4.8 4.9 4.8 4.3 4.7 5.6 6.2 6.4 6.6 6.4 6.1 6.4 6.5 6.8 6.9 6.8 6.7 6.9 7.0 6.6 6.2 6.1 6.3 5.5 6.0 6.5 6.7 7.0 7.1 7.0 6.8 6.7 6.6 6.5 6.3 6.3 6.3 6.3 6.3 6.2 6.4 6.6 6.6
4.3 4.4 4.8 4.4 5.6 6.2 5.9 7.2 6.9 6.4 6.2 6.1 6.4 6.6 7.0 7.1 7.1 6.7 6.5 6.1 6.0 5.4 5.9 6.6 6.7 6.9 7.0 7.0 7.1 6.9 6.7 6.5 6.5 6.5 6.5 6.3 6.1 6.1 6.2 6.3 6.4 6.5 6.7 6.9
Wind_Speed
1 6 6 10 5 5 5 7 10 11 5 9 13 15 15 11 14 18 18 19 19 20 18 16 15 15 15 16 16 16 16 16 12 10 10 9 8 7 7 8 10 9 8 6
5 7 7 2 2 5 8 11 12 10 2 6 13 15 14 13 19 20 18 20 21 18 18 18 17 17 16 16 18 18 18 18 14 11 9 8 7 7 8 10 9 9 9 8
8 1 2 3 5 7 10 8 11 12 13 14 15 18 20 14 18 14 18 18 21 22 24 21 21 20 16 18 18 19 19 19 17 15 10 8 9 8 7 7 7 10 10 9
7 1 7 8 12 9 12 4 7 10 10 10 8 11 16 13 13 15 16 19 21 24 23 23 23 20 18 19 16 18 18 19 17 17 14 14 12 10 8 9 8 11 11 11
4 5 4 7 6 5 4 3 9 12 14 14 18 11 14 6 13 15 16 19 22 24 25 25 25 19 19 18 20 21 23 22 20 19 17 14 13 10 8 8 11 9 12 12
8 1 5 7 3 6 3 11 14 14 10 8 8 9 8 7 10 13 15 15 19 21 23 21 22 18 18 20 21 18 22 22 21 20 19 18 17 13 11 11 10 9 8 12
2 7 5 5 8 12 9 9 5 4 5 7 4 7 11 14 12 12 14 14 11 15 19 22 21 22 20 26 23 18 23 23 24 22 21 19 18 16 15 14 11 12 10 8
5 5 6 6 6 2 5 6 4 6 7 14 14 7 2 9 14 16 17 17 15 11 15 20 24 21 22 23 25 25 23 23 24 23 23 19 19 12 12 14 11 10 10 10
4 5 4 7 4 5 6 6 3 9 15 10 5 6 10 12 6 8 11 10 13 11 13 18 20 22 20 22 23 25 22 23 25 24 20 20 18 18 15 16 14 10 10 11
2 7 8 2 6 11 11 3 5 5 5 11 9 17 11 5 10 10 12 11 13 13 11 14 16 19 18 19 18 20 21 21 21 23 20 18 19 19 16 15 16 14 12 14
1 6 8 8 11 13 7 10 7 8 9 10 12 8 4 8 9 15 15 18 19 19 12 13 14 15 18 17 17 19 20 21 21 20 21 20 19 20 18 17 16 16 14 16
7 5 9 16 11 11 14 17 15 10 10 13 12 18 17 14 11 15 15 19 21 18 14 11 13 15 18 17 18 19 19 21 21 21 20 20 19 20 19 18 18 16 16 19
7 5 9 11 13 15 13 18 15 19 18 26 15 15 6 10 12 18 20 20 21 16 11 10 12 15 18 21 21 21 19 22 21 22 19 18 20 19 20 19 18 17 16 17
6 10 17 15 14 9 11 13 15 15 13 19 22 26 30 23 20 20 19 21 20 13 12 13 14 16 18 19 20 20 22 21 22 19 21 21 21 22 20 19 19 18 18 16
6 19 17 24 26 22 19 24 28 27 29 25 31 30 35 26 26 26 24 22 22 16 14 17 18 17 17 18 18 17 19 18 17 20 21 20 19 18 18 18 18 17 18 17
10 17 11 22 28 23 22 30 35 30 33 32 34 36 38 29 27 25 25 23 23 19 18 19 19 17 18 20 19 17 18 18 19 20 20 15 15 17 17 15 16 16 17 17
12 9 8 24 22 18 17 35 31 31 33 27 31 34 31 27 26 24 23 22 22 22 19 17 19 19 16 14 15 17 16 16 17 18 17 17 16 15 14 13 15 17 16 15
20 17 12 15 15 16 25 20 25 29 26 26 28 28 27 25 24 23 27 23 23 22 16 14 16 16 15 11 11 11 12 15 16 17 16 15 16 16 15 16 18 16 16 18
27 22 13 14 16 24 26 27 23 26 28 29 27 30 30 27 22 32 22 19 23 22 15 14 13 10 11 14 7 9 14 14 15 15 14 14 16 16 15 16 16 15 15 15
22 22 16 13 21 12 15 22 27 27 29 33 29 28 25 19 16 22 17 18 16 13 10 11 13 11 7 9 12 13 13 14 14 13 13 12 13 13 13 13 13 12 11 12
11 16 20 18 17 17 24 26 23 19 23 18 26 28 29 24 20 23 9 7 10 9 8 8 10 10 8 7 8 10 10 10 9 8 8 8 9 9 9 9 8 9 10 11
22 16 17 17 22 26 23 23 24 21 25 27 24 19 13 11 15 14 12 11 12 11 10 7 12 13 10 6 9 11 10 8 8 8 8 8 8 6 6 8 8 9 10 11
5 10 7 10 14 17 18 25 25 25 26 29 28 34 30 28 24 13 11 12 14 14 11 7 11 11 11 7 8 12 10 10 10 10 9 8 7 7 7 8 8 7 9 8
25 25 22 23 32 30 30 32 33 32 32 32 30 31 30 29 27 22 13 16 16 13 13 9 11 13 10 7 6 11 10 10 10 10 10 8 7 6 5 5 5 6 7 8
19 20 25 27 33 29 32 30 32 34 34 33 36 34 32 30 28 16 16 15 10 13 16 13 10 13 12 11 11 10 9 9 9 9 8 7 5 4 5 4 4 6 7 6
22 27 19 24 30 25 29 32 32 30 27 30 30 31 18 14 13 12 10 12 11 13 16 14 15 15 14 13 12 10 8 8 9 8 6 4 3 2 0 2 4 7 8 5
Wind_Direction
124 260 271 328 311 326 296 279 281 287 255 277 260 264 269 209 222 225 214 212 213 211 200 194 192 189 185 176 175 176 179 175 175 177 176 173 174 165 159 156 150 147 145 138
221 259 327 279 248 257 272 284 282 291 159 254 279 272 270 261 233 231 225 218 218 213 209 199 195 190 191 179 184 183 184 181 185 180 185 180 170 174 164 154 158 152 153 154
249 97 108 245 258 270 271 280 292 301 306 271 262 271 244 249 251 243 234 224 222 213 213 203 198 193 186 190 188 189 190 186 187 181 176 176 167 163 172 166 164 167 166 165
251 224 255 264 265 271 282 13 287 291 294 292 320 290 289 249 242 233 237 225 222 219 218 210 206 195 188 193 189 195 196 190 190 185 182 183 184 182 186 175 168 166 170 166
114 203 239 261 283 199 292 306 299 294 283 291 273 260 279 253 253 257 238 231 225 223 218 217 208 195 191 193 191 191 191 192 191 189 192 189 195 191 174 173 163 171 171 173
275 200 256 259 252 224 289 281 285 270 273 261 288 248 287 297 261 269 272 249 234 230 219 221 214 194 191 193 202 201 192 194 192 193 197 196 196 189 178 177 176 178 175 180
215 229 255 245 256 230 244 274 291 253 213 273 45 300 264 307 299 285 286 297 286 230 223 208 202 199 189 195 199 193 199 197 193 196 198 198 199 194 189 182 186 179 181 188
279 238 199 156 229 330 213 230 272 300 304 307 306 261 271 319 303 295 285 281 284 258 221 222 205 204 199 199 195 195 195 201 195 197 201 198 202 197 197 192 192 191 191 187
241 233 162 217 199 219 146 224 8 283 272 276 237 252 253 273 302 301 284 286 280 263 228 223 214 206 202 199 197 200 195 199 198 200 201 200 201 204 199 193 201 196 193 185
296 266 224 195 208 232 239 61 235 211 284 297 288 298 285 255 306 319 310 307 301 277 252 231 221 211 197 201 195 193 198 204 203 200 202 201 202 204 202 197 200 198 194 189
296 241 231 214 223 245 189 226 235 285 267 275 296 276 17 276 294 302 291 294 299 303 269 244 222 199 198 198 186 193 192 197 205 204 203 202 202 204 204 206 202 201 193 189
15 282 251 249 253 260 268 268 250 241 255 248 266 273 283 266 283 295 292 295 294 302 284 236 211 191 194 197 189 194 194 199 204 208 204 204 202 204 207 210 206 202 195 194
354 245 273 254 237 230 244 246 249 260 261 261 264 259 212 285 283 289 291 295 294 297 257 214 199 199 196 198 199 197 197 204 202 207 203 204 206 204 210 211 207 202 196 201
297 249 251 258 261 296 270 281 282 266 257 263 252 267 273 281 282 293 288 292 296 284 242 211 202 203 204 204 200 202 201 203 205 205 203 208 209 209 210 210 211 204 204 203
265 261 258 264 268 268 275 271 269 261 260 262 268 269 270 280 288 290 292 287 288 282 239 222 212 204 203 203 202 200 204 200 198 204 209 212 212 214 214 215 213 207 203 202
269 264 275 272 268 279 271 266 260 258 262 264 268 270 269 283 277 278 279 279 280 273 247 230 215 212 205 204 195 194 198 202 201 206 211 207 201 209 216 212 209 195 202 205
265 277 260 262 273 282 269 247 258 258 255 258 262 265 278 274 273 270 271 272 273 269 259 235 220 214 210 204 195 202 192 202 202 207 214 210 206 201 205 201 198 209 209 194
242 237 226 260 281 255 245 260 259 262 264 260 263 268 273 267 272 278 275 278 267 271 267 233 216 208 200 196 192 183 178 201 202 208 214 209 207 210 209 211 219 216 210 213
223 228 234 231 244 258 272 259 253 257 263 261 264 267 268 269 274 266 263 263 262 261 243 217 204 203 181 188 179 177 190 207 206 208 216 207 211 213 210 216 217 216 216 218
215 219 224 230 234 251 248 267 259 262 264 264 266 271 269 270 262 268 270 266 251 243 213 190 169 157 154 173 165 179 200 204 209 204 204 204 204 206 210 214 216 215 218 218
203 201 219 229 245 261 261 272 282 263 258 256 252 256 250 253 256 263 287 237 222 211 184 170 132 129 123 119 167 184 185 199 198 183 182 184 188 196 204 203 206 208 210 215
250 250 245 245 247 261 250 264 254 264 277 278 275 283 276 276 286 262 243 211 174 158 139 140 113 91 88 140 157 158 149 142 153 146 150 158 169 168 178 186 191 200 207 216
241 230 242 256 247 255 271 291 285 282 263 261 264 275 277 283 282 263 234 188 159 135 115 112 98 101 116 162 155 128 132 136 135 132 133 139 141 156 169 184 191 199 212 217
262 262 258 267 257 262 265 269 270 276 283 286 260 254 258 266 268 276 210 171 155 142 120 121 152 139 139 129 101 122 123 124 122 121 121 130 144 148 170 193 197 205 211 218
260 264 265 272 272 275 267 267 270 270 263 262 265 271 263 260 256 225 191 165 162 141 147 164 159 136 128 127 113 108 108 119 109 101 103 102 106 169 178 200 212 226 238 236
253 255 250 258 260 260 269 275 280 281 269 264 261 261 271 250 201 181 183 154 147 169 162 149 135 124 122 113 100 94 89 95 101 98 91 79 99 97 5 278 268 224 250 283